User: anonymous   Login
Location: ????
(55.2778°N, 39.2433°E)
Time: 22:51:06
(UTC+00:00)
Language:

Meteor 1-27 Rocket - Orbit

View from above orbital plane
View from above orbital plane
View from above satellite
View from above satellite

Ground track
Ground track

The orbit data is extracted from the following two-line orbital elements,

1 09904U 77024B   24170.53458190  .00000106  00000-0  55767-4 0  9992
2 09904  81.2602 177.5389 0054838 323.2432  36.4982 14.07105998422307
Epoch (UTC): 18 June 2024 12:49:47
Eccentricity: 0.0054838
inclination: 81.2602°
perigee height: 829 km
apogee height: 909 km
right ascension of ascending node: 177.5389°
argument of perigee: 323.2432°
revolutions per day: 14.07105998
mean anomaly at epoch: 36.4982°
orbit number at epoch: 42230

The dashed part of the orbit path shows where the satellite is in the earth's shadow,  

DLR